Location: Altavilla Irpina
(41.0000°N, 14.7833°E)
Time: 00:25:31
(UTC+00:00)

Okean-O - Pass Details

Date: 19 May 2025
Orbit: 628 x 631 km, 98.0° (Epoch: 22 June)

Event Time Altitude Azimuth Distance (km) Brightness Sun altitude
Exits shadow 20:03:46 20° 185° (S) 1,452 4.1 -16.9°
Maximum altitude 20:06:39 59° 259° (W) 732 3.0 -17.3°
Drops below altitude 10° 20:11:00 10° 339° (NNW) 2,020 6.3 -17.8°
Sets 20:13:14 0° 344° (NNW) 2,932 7.2 -18.1°
